Regional Weather Roundup
Issued by NWS

Home | Current Version | Previous Version | Text Only | Print | Product List | Glossary On
Versions: 1 2 3 4 5 6 7 8 9 10 11 12 13 14 15 16 17 18 19 20 21 22 23 24 25 26 27 28 29 30 31 32 33 34 35 36 37 38 39 40 41 42 43 44 45 46 47 48 49 50
000
ASUS44 KBMX 011910
RWRAL

ALABAMA REGIONAL WEATHER ROUNDUP
NATIONAL WEATHER SERVICE BIRMINGHAM AL
200 PM CDT SAT OCT 01 2016

NOTE: "FAIR" INDICATES FEW OR NO CLOUDS BELOW 12,000 FEET
WITH NO SIGNIFICANT WEATHER AND/OR OBSTRUCTIONS TO VISIBILITY.

THE REMARK "TC" DENOTES TEMPERATURE IN DEGREES CELSIUS.

ALZ001>011-014-016>018-020-012000-
NORTH ALABAMA

CITY           SKY/WX    TMP DP  RH WIND       PRES   REMARKS
MUSCLE SHOALS  CLOUDY    76  52  43 NW12G18   30.07F
HUNTSVILLE     PTSUNNY   79  51  37 W7        30.05F
DECATUR        MOSUNNY   78  53  41 SW3       30.06F
HALEYVILLE     CLOUDY    73  53  49 W6        30.09F
GADSDEN        CLOUDY    79  52  38 W6        30.05F
$$

ALZ012-013-022-023-030>036-040>044-012000-
WEST CENTRAL ALABAMA

CITY           SKY/WX    TMP DP  RH WIND       PRES   REMARKS
TUSCALOOSA     MOSUNNY   80  50  34 NW8       30.05F
$$

ALZ015-024>027-033>036-040>044-012000-
CENTRAL ALABAMA

CITY           SKY/WX    TMP DP  RH WIND       PRES   REMARKS
BIRMINGHAM     PTSUNNY   79  51  37 W9        30.07F
MONTGOMERY     SUNNY     81  48  31 S3        30.05F
SHELBY CO ARPT MOSUNNY   80  50  34 SW8       30.05F
MAXWELL AFB    SUNNY     81  51  34 VRB5      30.03F
GREENVILLE     FAIR      84  49  29 VRB7      30.04F
$$

ALZ019-021-028-029-037-038-045>048-012000-
EAST CENTRAL ALABAMA

CITY           SKY/WX    TMP DP  RH WIND       PRES   REMARKS
ANNISTON       MOSUNNY   78  47  33 SW6       30.06F
ALEXANDER CITY SUNNY     80  57  44 S3        30.06F
AUBURN         SUNNY     79  48  33 VRB5      30.06F
$$

ALZ051>064-012000-
SOUTHWEST ALABAMA

CITY           SKY/WX    TMP DP  RH WIND       PRES   REMARKS
MOBILE         PTSUNNY   78  56  46 NW3       30.05F
BROOKLEY FIELD MOSUNNY   81  57  43 SE8       30.05F
EVERGREEN      SUNNY     81  56  42 VRB3      30.05F
$$

ALZ049-050-065>069-012000-
SOUTHEAST ALABAMA

CITY           SKY/WX    TMP DP  RH WIND       PRES   REMARKS
DOTHAN         SUNNY     82  50  32 VRB7      30.08F
OZARK          SUNNY     80  53  39 CALM      30.04F
TROY           SUNNY     81  50  33 N9        30.05F
EUFAULA        FAIR      85  48  27 VRB5      30.03F
$$



USA.gov is the U.S. government's official web portal to all federal, state and local government web resources and services.